Minneapolis Flying Cloud, MN

9:33 PM CST on January 16, 2018 (GMT -0600)
Flying Cloud

Weather History for KFCM - July, 2014

Change the Weather History Date:

Saturday, July 19, 2014

  Actual Average Record
Temperature  
Mean Temperature 72 °F -  
Max Temperature 79 °F 80 °F 96 °F (2011)
Min Temperature 66 °F 61 °F 54 °F (2000)
Cooling Degree Days 8    
Growing Degree Days 22 (Base 50)    
Moisture  
Dew Point 61 °F    
Average Humidity 69    
Maximum Humidity 79    
Minimum Humidity 56    
Precipitation  
Precipitation 0.01 in - - ()
Sea Level Pressure  
Sea Level Pressure 29.90 in    
Wind  
Wind Speed 9 mph (SSW)    
Max Wind Speed 18 mph    
Max Gust Speed 23 mph    
Visibility 10 miles    
Events Rain    
Averages and records for this station are not official NWS values.
T = Trace of Precipitation, MM = Missing Value Source: NWS Daily Summary

Daily Weather History Graph

Daily Weather History Graph

Search for Another Location

Airport or City:

Trip Planner

Search our weather history database for the weather conditions in past years. The results will help you decide how hot, cold, wet, or windy it might be!

Date:

Astronomy

Jul. 19, 2014 Rise Set
Actual Time 5:45 AM CDT 8:53 PM CDT
Civil Twilight 5:10 AM CDT 9:29 PM CDT
Nautical Twilight 4:25 AM CDT 10:14 PM CDT
Astronomical Twilight 3:29 AM CDT 11:09 PM CDT
Moon 12:29 AM CDT (7/19) 2:29 PM CDT (7/19)
Length of Visible Light 16h 18m
Length of Day
15h 07m
Last Quarter, 43% of the Moon is Illuminated
Jul 19
Last Quarter
Jul 26
New
Aug 3
First Quarter
Aug 10
Full
Aug 17
Last Quarter

Hourly Weather History & Observations

Time (CDT) Temp. Dew Point Humidity Pressure Visibility Wind Dir Wind Speed Gust Speed Precip Events Conditions
12:53 AM 70.0 °F 59.0 °F 68% 29.92 in 10.0 mi South 8.1 mph 18.4 mph N/A   Mostly Cloudy
1:53 AM 68.0 °F 59.0 °F 73% 29.93 in 10.0 mi South 8.1 mph - N/A   Partly Cloudy
2:53 AM 66.9 °F 59.0 °F 76% 29.92 in 10.0 mi South 8.1 mph - N/A   Overcast
3:53 AM 66.9 °F 59.0 °F 76% 29.91 in 10.0 mi SSW 6.9 mph - N/A   Mostly Cloudy
4:53 AM 66.9 °F 60.1 °F 79% 29.90 in 10.0 mi South 5.8 mph - N/A   Mostly Cloudy
5:53 AM 66.9 °F 60.1 °F 79% 29.91 in 10.0 mi South 6.9 mph - N/A   Overcast
6:53 AM 68.0 °F 60.1 °F 76% 29.90 in 10.0 mi South 11.5 mph - N/A   Scattered Clouds
7:53 AM 68.0 °F 60.1 °F 76% 29.91 in 10.0 mi South 9.2 mph - N/A   Partly Cloudy
8:53 AM 70.0 °F 61.0 °F 73% 29.92 in 10.0 mi South 13.8 mph - N/A   Overcast
9:53 AM 72.0 °F 62.1 °F 71% 29.92 in 10.0 mi SSW 9.2 mph - N/A   Mostly Cloudy
10:53 AM 73.0 °F 62.1 °F 68% 29.91 in 10.0 mi SSW 11.5 mph 19.6 mph N/A   Clear
11:53 AM 73.9 °F 63.0 °F 68% 29.90 in 10.0 mi SSW 13.8 mph 23.0 mph N/A   Clear
12:53 PM 75.0 °F 62.1 °F 64% 29.91 in 10.0 mi SSW 15.0 mph - N/A   Overcast
1:53 PM 73.9 °F 62.1 °F 66% 29.90 in 10.0 mi SSW 12.7 mph - 0.00 in Rain Light Rain
2:53 PM 75.0 °F 64.0 °F 69% 29.89 in 10.0 mi South 10.4 mph - 0.01 in   Mostly Cloudy
3:53 PM 79.0 °F 62.1 °F 56% 29.88 in 10.0 mi South 18.4 mph 23.0 mph N/A   Mostly Cloudy
4:53 PM 78.1 °F 62.1 °F 58% 29.88 in 10.0 mi SSW 11.5 mph - N/A   Overcast
5:53 PM 78.1 °F 63.0 °F 60% 29.88 in 10.0 mi SSW 6.9 mph 18.4 mph N/A   Scattered Clouds
6:53 PM 77.0 °F 64.0 °F 64% 29.88 in 10.0 mi SSW 6.9 mph - N/A   Mostly Cloudy
7:53 PM 77.0 °F 62.1 °F 60% 29.88 in 10.0 mi South 8.1 mph - N/A   Overcast
8:53 PM 75.0 °F 62.1 °F 64% 29.87 in 10.0 mi South 5.8 mph - N/A   Mostly Cloudy
10:53 PM 73.0 °F 63.0 °F 71% 29.88 in 10.0 mi SSE 5.8 mph - N/A   Overcast
11:53 PM 73.9 °F 63.0 °F 68% 29.86 in 10.0 mi South 6.9 mph - N/A   Overcast